sat.trackr.live / text

‹ back to catalog

STARLINK-32649

NORAD 62305 · 2024-239E

PAYLOAD ACTIVE UNKNOWN

§ Identity

Operator
Country
US
Launch date
2024-12-13
Launch site
AFWTR
Launch vehicle
Mass (kg)
RCS (m²)

Purposes: comms

External: N2YO · Heavens-Above · Gunter

§ Orbital elements

Epoch: 2026-05-25T03:16:54.645312Z

Period
94.11 min
Inclination
53.1591°
Eccentricity
0.0001269
Mean motion
15.30201860 rev/d
Perigee alt
474.3 km
Apogee alt
476.1 km
Semi-major
6,853.3 km
B*
2.8009e-4
RAAN
198.4556°
Arg perigee
83.7688°
Mean anomaly
276.3457°
Rev number
8,109

§ Raw data

STARLINK-326491 62305U 24239E   26145.13674358  .00007946  00000+0  28009-3 0  99982 62305  53.1591 198.4556 0001269  83.7688 276.3457 15.30201860 81096

JSON: /api/v1/satellites/62305 · /tle

For live sub-satellite position, see the globe view (requires WebGL).

§ Visibility from observer

Set your observer location to see the next 7 days of passes ≥ 10°. The values pass through the URL so the page stays shareable.

No JS? Fill the form by hand. The geolocation button needs JavaScript.